Terminal Aerodrome Forecast
Issued by NWS Bismarck, ND

Home | Current Version | Previous Version | Graphics & Text | Print | Product List | Glossary On
Versions: 1 2 3 4 5 6 7 8 9 10 11 12 13 14 15 16
000
FTUS43 KBIS 191600 AAB
TAFISN
TAF AMD
KISN 191624Z 1916/2012 27016G25KT P6SM FEW160
     FM192000 29017G26KT P6SM VCTS SCT110CB
     FM200000 32014G23KT P6SM BKN060
     FM200200 31010KT P6SM SCT110=

USA.gov is the U.S. government's official web portal to all federal, state and local government web resources and services.